Погода в Шумерле

Россия / Чувашская Республика     55°31′22″N   46°22′31″E
темп.,
°C
ветер,
м/с
пор.,
м/с
влажн.,
%
обл.,
%
осадки,
мм/ч
давл.,
гПа
погр.,
м
19 сентября, вс
вс1900:00+1с22855 0.0 102618
03:000с1193100 0.0 102610
06:000ссв118997 0.0 102616
09:00+6с225775 0.0 1027635
12:00+9с224293 0.0 10261162
15:00+10с1238100 0.0 10251289
18:00+5св2256100 0.0 102511
21:00+4всв226478 0.0 102630
20 сентября, пн
пн2000:00+3всв3671100 0.0 1026135
03:00+2всв41076100 0.0 1026270
06:00+2в41076100 0.0 1026343
09:00+5в5860100 0.0 1027531
12:00+7в4753100 0.0 1026816
15:00+8вюв4653100 0.0 1026955
18:00+7в4957100 0.0 1025596
21:00+5в41158100 0.0 1025439
21 сентября, вт
вт2100:00+6в41157100 0.0 1024430
03:00+5в41161100 0.0 1023432
06:00+6в41161100 0.0 1022811
09:00+6в51169100 0.3 1021923
12:00+6в51382100 0.8 1020732
15:00+6в51386100 1.7 1019748
18:00+6в51486100 0.8 1018735
21:00+6в51289100 0.9 1016563
22 сентября, ср
ср2200:00+7в41289100 0.0 1015519
03:00+7в41188100 0.1 1013507
06:00+6в41189100 0.3 1013446
09:00+7в41093100 1.3 1012503
12:00+9вюв4891100 0.6 1012542
15:00+10в3693100 0.6 1012384
18:00+9всв269796 0.0 1012255
21:00+8всв259841 0.0 1012148
23 сентября, чт
чт2300:00+9в259696 0.1 1011207
03:00+8вюв259987 0.1 1011179
06:00+9ююв239794 0.0 1011112
09:00+9ю1393100 0.1 1011204
12:00+11ю247995 0.0 1012554
15:00+13ю2564100 0.1 1011704
18:00+10ююв2272100 0.0 101142
21:00+9ююв1274100 0.0 101029